Total_Precipitation_Accumulation
0.04 0.05 0.12 0.09 0.08 0.10 0.13 0.16 0.16 0.15 0.14 0.12 0.10 0.08 0.06 0.07 0.06 0.05 0.06 0.08 0.11 0.15 0.18 0.23 0.27 0.27 0.31 0.33 0.32 0.30 0.31 0.36 0.46 0.50 0.51 0.53 0.63 0.83 1.01 0.98 0.98 0.71 0.57
0.01 0.03 0.10 0.07 0.07 0.08 0.10 0.14 0.15 0.15 0.14 0.13 0.12 0.09 0.07 0.07 0.06 0.07 0.07 0.10 0.13 0.14 0.16 0.20 0.21 0.20 0.23 0.26 0.25 0.24 0.28 0.38 0.58 0.69 0.77 0.71 0.83 0.95 0.94 0.84 0.96 0.63 0.55
0.01 0.02 0.06 0.07 0.06 0.06 0.08 0.11 0.12 0.12 0.13 0.13 0.12 0.10 0.10 0.08 0.07 0.08 0.09 0.12 0.15 0.15 0.15 0.15 0.15 0.16 0.18 0.21 0.23 0.26 0.30 0.49 0.76 0.99 1.14 0.96 0.68 0.95 0.97 0.83 0.71 0.47 0.52
0.02 0.02 0.04 0.07 0.07 0.06 0.07 0.09 0.11 0.11 0.11 0.12 0.10 0.10 0.11 0.09 0.10 0.12 0.12 0.14 0.17 0.18 0.16 0.14 0.14 0.14 0.15 0.19 0.26 0.33 0.40 0.55 0.79 1.13 1.44 0.93 0.48 0.61 0.73 0.62 0.54 0.44 0.43
0.03 0.04 0.08 0.10 0.07 0.07 0.07 0.09 0.10 0.10 0.10 0.10 0.10 0.11 0.11 0.11 0.13 0.14 0.15 0.16 0.17 0.18 0.16 0.14 0.13 0.14 0.15 0.18 0.26 0.35 0.44 0.58 0.78 1.00 0.96 0.90 0.75 0.60 0.54 0.47 0.46 0.43 0.38
0.05 0.06 0.08 0.10 0.08 0.07 0.07 0.08 0.10 0.11 0.10 0.11 0.12 0.12 0.14 0.14 0.15 0.15 0.15 0.15 0.18 0.18 0.18 0.15 0.11 0.12 0.16 0.18 0.25 0.35 0.43 0.56 0.71 0.66 0.58 0.65 0.62 0.59 0.54 0.53 0.58 0.50 0.39
0.07 0.06 0.07 0.10 0.10 0.08 0.08 0.09 0.10 0.10 0.10 0.11 0.12 0.12 0.13 0.14 0.16 0.17 0.17 0.16 0.18 0.19 0.19 0.15 0.13 0.14 0.16 0.20 0.25 0.35 0.52 0.65 0.71 0.57 0.54 0.65 0.55 0.48 0.58 0.70 0.81 0.69 0.55
0.11 0.07 0.08 0.13 0.14 0.12 0.11 0.12 0.12 0.11 0.11 0.12 0.13 0.12 0.12 0.14 0.16 0.17 0.19 0.18 0.20 0.21 0.19 0.16 0.16 0.18 0.19 0.24 0.29 0.36 0.50 0.57 0.60 0.54 0.51 0.55 0.39 0.42 0.63 0.82 0.93 0.88 0.80
0.23 0.20 0.14 0.14 0.17 0.17 0.17 0.16 0.16 0.14 0.14 0.14 0.15 0.13 0.14 0.15 0.16 0.18 0.23 0.25 0.25 0.23 0.21 0.16 0.14 0.15 0.19 0.25 0.30 0.37 0.49 0.58 0.62 0.62 0.52 0.48 0.38 0.49 0.75 0.90 0.96 0.99 0.96
0.56 0.42 0.26 0.23 0.23 0.19 0.16 0.18 0.20 0.18 0.17 0.17 0.16 0.16 0.17 0.19 0.21 0.24 0.26 0.32 0.34 0.33 0.29 0.25 0.20 0.20 0.24 0.29 0.35 0.48 0.57 0.55 0.58 0.69 0.71 0.51 0.47 0.62 0.79 0.90 1.06 1.11 1.05
1.04 0.83 0.46 0.35 0.32 0.29 0.23 0.22 0.27 0.27 0.25 0.23 0.26 0.27 0.32 0.38 0.43 0.53 0.51 0.57 0.56 0.53 0.50 0.47 0.44 0.40 0.38 0.32 0.44 0.64 0.61 0.53 0.74 0.91 0.68 0.53 0.60 0.82 0.97 1.07 1.14 1.15 1.11
1.20 1.07 0.71 0.57 0.45 0.37 0.32 0.40 0.50 0.48 0.50 0.45 0.54 0.58 0.71 0.87 0.82 0.66 0.80 1.01 1.02 1.02 0.94 0.93 0.92 0.75 0.56 0.53 0.99 1.27 0.81 0.78 0.86 0.74 0.65 0.71 0.94 1.21 1.45 1.36 1.22 1.12 1.04
1.36 1.19 0.92 0.82 0.73 0.58 0.63 0.58 0.64 0.74 0.86 0.74 0.72 0.82 1.10 1.07 0.85 0.81 0.94 1.17 1.38 1.36 1.27 1.46 1.52 1.13 1.07 1.30 1.59 1.54 1.10 1.10 1.00 0.84 0.72 0.95 1.26 1.64 1.91 1.81 1.52 1.30 1.12
1.66 1.47 1.24 1.04 0.90 0.84 0.81 0.76 0.76 0.76 0.92 0.90 1.02 1.06 1.22 1.39 1.30 1.27 1.36 1.40 1.52 1.64 1.89 1.91 1.96 1.74 1.69 1.63 1.76 1.59 1.38 1.35 1.17 1.27 1.37 1.51 1.54 1.76 2.19 2.16 1.84 1.59 1.41
2.13 1.99 1.79 1.46 1.36 1.24 1.24 1.20 1.06 1.06 1.16 1.25 1.37 1.37 1.36 1.55 1.54 1.60 1.63 1.68 1.59 1.70 1.92 2.11 2.05 2.13 2.21 2.03 1.75 1.61 1.64 1.63 1.65 1.64 1.64 1.90 1.81 1.78 2.20 2.30 2.07 1.85 1.70
2.76 2.76 2.55 2.21 2.13 1.96 1.74 1.57 1.51 1.42 1.50 1.52 1.57 1.54 1.61 1.80 1.92 1.86 1.71 1.73 1.69 1.74 1.84 2.03 2.13 2.42 2.38 2.28 1.87 1.70 1.74 1.82 1.80 1.81 1.82 2.10 2.01 1.76 1.96 2.18 2.28 2.16 1.96
2.95 3.13 3.13 2.96 2.94 2.77 2.47 2.12 1.90 1.87 1.78 1.86 1.92 1.87 1.95 2.01 2.11 2.04 1.87 1.73 1.80 1.87 1.96 1.99 2.12 2.39 2.34 2.22 1.99 1.85 1.79 1.65 1.54 1.57 1.65 1.82 1.79 1.71 1.78 1.95 2.19 2.25 2.15
3.16 3.35 3.55 3.55 3.52 3.31 3.01 2.67 2.41 2.25 2.17 2.14 2.09 2.05 2.00 2.11 2.14 2.10 1.90 1.72 1.91 1.91 1.97 2.12 2.20 2.33 2.44 2.46 2.20 1.94 1.81 1.65 1.48 1.47 1.43 1.45 1.56 1.33 1.55 1.78 1.94 2.05 2.30
3.49 3.87 4.23 4.28 4.18 3.82 3.39 3.09 2.96 2.78 2.54 2.34 2.30 2.13 2.06 2.10 2.04 2.10 1.88 1.77 1.94 2.10 2.07 1.89 2.19 2.43 2.42 2.45 2.11 1.91 1.65 1.47 1.33 1.26 1.28 1.20 1.23 1.22 1.29 1.40 1.55 1.66 2.11
4.00 4.55 4.57 4.49 4.70 4.47 4.09 3.78 3.44 3.11 2.84 2.58 2.40 2.20 1.97 1.84 1.86 2.07 1.79 1.79 2.00 2.10 2.03 2.08 2.28 2.43 2.32 2.38 2.10 1.69 1.41 1.14 1.08 1.01 0.93 0.94 0.88 0.81 0.93 1.16 1.48 1.38 1.75
3.87 4.35 4.72 4.73 4.60 4.44 4.15 3.68 3.23 2.83 2.67 2.44 2.22 2.01 1.92 1.87 1.94 2.21 1.96 1.98 1.99 1.93 1.92 2.09 2.21 2.12 1.99 2.40 2.38 1.69 1.15 0.87 0.76 0.62 0.65 0.66 0.58 0.62 0.85 1.16 1.35 1.42 1.34
3.21 3.64 3.99 4.08 3.72 3.34 3.16 3.07 2.87 2.75 2.44 2.26 2.22 2.20 2.05 2.01 2.00 2.01 2.06 1.95 1.94 1.93 1.78 1.86 2.06 1.91 1.60 2.01 2.20 2.04 1.43 0.98 0.70 0.47 0.49 0.49 0.52 0.66 0.75 0.83 1.08 1.31 1.28
2.71 2.85 2.96 3.00 2.90 2.80 2.84 2.95 2.97 2.98 2.68 2.54 2.46 2.42 2.19 2.11 2.07 2.10 1.94 1.77 1.74 1.69 1.58 1.59 1.76 1.82 1.60 1.60 1.92 2.19 1.74 1.16 0.89 0.60 0.57 0.57 0.70 0.83 0.83 0.87 0.96 1.09 1.18
2.06 2.31 2.64 2.73 2.72 2.79 2.98 3.00 2.98 2.89 2.82 2.81 2.89 2.86 2.70 2.46 2.24 2.06 1.83 1.63 1.48 1.39 1.38 1.28 1.45 1.57 1.60 1.35 1.46 1.57 1.50 1.43 1.33 0.93 0.69 0.68 0.82 0.90 0.93 0.96 0.98 1.04 1.16
1.70 1.93 2.29 2.66 2.82 2.96 3.14 3.19 3.32 3.25 3.09 2.96 2.94 2.87 2.64 2.46 2.24 1.95 1.76 1.60 1.46 1.34 1.27 1.23 1.30 1.28 1.30 1.21 1.24 1.28 1.32 1.31 1.26 1.18 0.92 0.88 0.87 0.71 0.72 0.79 0.92 1.19 1.30
1.84 1.93 2.06 2.34 2.65 2.88 3.00 3.04 3.04 2.98 2.87 2.65 2.49 2.25 2.02 1.92 1.81 1.65 1.52 1.38 1.29 1.26 1.28 1.23 1.20 1.18 1.18 1.19 1.19 1.17 1.25 1.31 1.35 1.37 1.19 1.05 0.94 0.78 0.75 0.76 0.84 1.02 1.14